Погода в Ереване

Погода в Ереване : погода сейчас, прогноз погоды и архив. Всё, что Вы хотите узнать о погоде в Ереване!

Поиск расширенной информации на нашем сайте:

Другие новости

Новости СМИ2

Главная страница сайта

Новости сайта

02.10.2013

Напоминаем, что на нашем новом сайте вы можете получить высокодетализированные прогнозы погоды по пунктам России, СНГ и мира (включающие важные для авиации метеовеличины, такие как направление и скорость ветра, видимость, явления погоды, количество и форма облачности, нижняя и верхняя граница облачности), а также ознакомиться с разнообразными материалами по авиационной метеорологии и подборкой полезных ссылок на эту тему.

Сайт Метеоцентр.Азия посвящён разработке технологий оптимизации авиаметеорологического обслуживания, включая проектирование и перспективное создание нескольких автоматизированных авиаметеорологических систем:
- система выпуска высокодетальных прогностических карт явлений погоды для нижнего воздушного пространства по России и ближнему зарубежью;
- система верификации прогнозов TAF (выпускаемых синоптиками официальных АМСГ РФ и ближнего зарубежья) и AUTOTAF (выпускаемых сайтом Метеоцентр.Азия) - выявление ошибок, онлайн-сопоставление с фактической погодой METAR, автоматическое внесение коррективов в прогнозы при резком отклонении фактической погоды от прогноза, подсчёт оправдываемости прогнозов по элементам и в целом;
- система обработки, анализа и отображения авиаметеорологической информации для применения провайдерами метеорологической информации.

Рекомендуем: Порекомендовали элькарнитин цена и я похудела на 10 кг!

Погода в Ереване - сегодня

Время (UTC), дата Ветер
(°,м/с) 
Видим.   Явления Облачность Т
(°С)
Тd
(°С)
f(%) Тe
(°С)
Pmin
(гПа)
dP
(гПа)
Po
(мм)
O2
(г/м3)
Тmin Tmax R s Состояние
почвы
18 24.04.17 060 (СВ) 20000 м    ясно 
+13.5 +1.1 43 +14  1012.1  2.9  686  263    +23       
21 24.04.17 тихо ()   20000 м    ясно 
+9.3 -0.7 50 +9  1015.7  1.9  688  268           
00 25.04.17 тихо ()   20000 м    ясно 
+9.3 -0.7 50 +9  1015.7  1.9  688  268           
03 25.04.17 120 (ЮВ) 20000 м    ясно 
+3.4 -1.6 70 +4  1020.8  2.1  690  275           
06 25.04.17 210 (ЮЗ) 20000 м    1/0 средняя 
[Ac cast]
+11.8 +1.5 49 +12  1019.2  1.5  691  266  +1.7         
09 25.04.17 240 (ЮЗ) 20000 м    3/0 верхняя 
[Cc]
+17.6 +3 38 +18  1016.5  -0.6  690  261           
12 25.04.17 270 (З) 20000 м    3/3 1000 м 
[Cu hum]
+18.6 -0.2 28 +19  1015.2  -1  690  260           
15 25.04.17 260 (З) 20000 м    3/0 средняя 
[Ac cuf]
+17.4 -7.4 18 +18  1016.7  0.9  690  262           
18 25.04.17 050 (СВ) 20000 м    ясно 
+10.8 -2.2 40 +10  1022.1  2.9  693  269    +19.5       
21 25.04.17 160 (Ю) 20000 м    ясно 
+6 -5.3 44 +7  1026.4  2.2  694  274           
00 26.04.17 090 (В) 20000 м    ясно 
+2.9 -5.1 56 +2  1028.3  0.7  695  277           
03 26.04.17 тихо ()   20000 м    1/0 средняя 
[Ac trans]
+2.4 -4.7 59 +2  1030.3  1.6  696  278           
06 26.04.17 280 (З) 20000 м    8/3 1000 м средняя 
[Sc|Ac trans]
+8.7 -3.3 43 +10  1029  1.1  697  272  +1.2         
09 26.04.17 150 (ЮВ) 20000 м    5/3 1000 м средняя 
[Sc|Ac trans]
+14.5 -0.2 36 +14  1025.8  -1.1  696  266           
12 26.04.17 160 (Ю) 20000 м    3/0 средняя 
[Ac cast]
+18.2 +0.4 30 +19  1022.3  -2  694  262           
15 26.04.17 200 (Ю) 20000 м    3/0 средняя 
[Ac cast]
+17.2 +0.2 32 +18  1021.7  -0.8  694  263           
18 26.04.17 050 (СВ) 20000 м    1/0 средняя 
[Ac trans]
+11.5 -1.4 41 +10  1025.4  1.7  695  269    +19       
21 26.04.17 070 (В) 20000 м    3/0 средняя 
[Ac trans]
+10.7 -2.2 40 +10  1027  696  270           
00 27.04.17 110 (В) 20000 м    3/0 средняя 
[Ac trans]
+9.1 -1.9 46 +8  1027.9  0.3  696  272           
03 27.04.17 090 (В) 20000 м    3/0 средняя 
[Ac trans]
+7.7 -0.9 54 +7  1028.9  0.4  696  273           
06 27.04.17 170 (Ю) 20000 м    3/0 средняя 
[Ac cast]
+13.4 +0 40 +13  1027.1  0.2  697  267  +4.7         
09 27.04.17 140 (ЮВ) 20000 м    3/1 1000 м средняя 
[Cu hum|Ac cast]
+15.8 +1.1 37 +17  1024.2  -1.7  695  265           
12 27.04.17 160 (Ю) 20000 м    ясно 
+18.7 +3 35 +20  1020.1  -2.7  693  261           
15 27.04.17 150 (ЮВ) 20000 м    ясно 
+18.1 +2.3 35 +19  1019.7  -0.7  693  261           
18 27.04.17 040 (СВ) 20000 м    ясно 
+13 +0.6 43 +12  1023  1.4  694  267    +19.5       
Время (UTC), дата Ветер
(°,м/с) 
Видим.   Явления Облачность Т
(°С)
Тd
(°С)
f(%) Тe
(°С)
Pmin
(гПа)
dP
(гПа)
Po
(мм)
O2
(г/м3)
Тmin Tmax R s Состояние
почвы

Для получения пояснительной информации подведите курсор к названию столбца.

ПОГОДА в Ереване - архив

Всё, что Вы хотите узнать о погоде в Ереване - удобно и подробно!

Выберите нужную дату (начиная с 1 января 2015* года) и нажмите кнопку "Найти".
Будут отображены архивные сводки погоды по пункту Ереван, начиная с указанной даты.


Отображать данные в формате CSV (для использования в таблицах Excel)


Внимание! Наш архив погоды предназначен исключительно для личного некоммерческого использования в познавательных целях. Если Вам необходимы официальные справки о состоянии погоды (для производственных, юридических, коммерческих и т.п. целей), обращайтесь в органы Росгидромета.

*Примечание: данная дата относится к архиву по метеостанциям СССР (Россия, СНГ, Балтия).
Архив по метеостанциям Зарубежной Европы и Азии (кроме Китая) хранится 10 дней, по другим регионам земного шара (Китай, Африка, Америка, Австралия, Океания) - 1 день.

Ереван - район местоположения метеостанции


Название, широта, долгота, высота метеостанции:
Ереван (Звартноц) 40.1°ш. 44.4°д. 865 м над ур. моря [Армения]

Дополнительная информация

В oтличие oт бoльшинства пoгoдных сайтoв мы публикуем пoдрoбную метеoинфoрмацию в детальнoм прoфессиoнальнoм фoрмате.

Характеристики температуры и влажнoсти вoздуха измеряются на высoте 2 м в тени вдали oт зданий и деревьев.
Скoрoсть ветра измеряется на высoте 10 м (на урoвне рoста челoвека скoрoсть ветра ниже в 1.5-2 раза). Если метеoстанция нахoдится в гoрoде или в лесу, тo скoрoсть ветра занижена на 2-4 м/с пo сравнению с oткрытым местoм. Скoрoсть ветра над акватoриями крупных рек и oзёр, а также на вершинах хoлмoв на 2-5 м/с выше, чем в oбычных услoвиях.
Атмoсфернoе давление в разных тoчках местнoсти мoжет значительнo oтличаться oт давления на метеoстанции, в зависимoсти oт услoвий рельефа (при пoдъёме на 10 м давление пoнижается примернo на 1 мм рт.ст.).